This is the latest recevied weather packets stored in our database for station/object S57D-6. If no packets are shown the sender has not sent any weather packets the latest 1 day(s).
| Time | Temp. | Humidity | Pressure | Rain* | Wind** | Luminosity | Snow |
|---|---|---|---|---|---|---|---|
| 1778087294 | 16.67° C | 80% | 1008.9 hPa | 0 mm | - | - | - |
| 1778086093 | 16.67° C | 81% | 1009 hPa | 0 mm | - | - | - |
| 1778085193 | 17.22° C | 80% | 1009 hPa | 0 mm | - | - | - |
| 1778083090 | 17.22° C | 83% | 1009.4 hPa | 0 mm | - | - | - |
| 1778081889 | 16.67° C | 85% | 1009.5 hPa | 0 mm | - | - | - |
| 1778081590 | 16.67° C | 87% | 1009.7 hPa | 0 mm | - | - | - |
| 1778080990 | 16.11° C | 87% | 1009.8 hPa | 0 mm | - | - | - |
| 1778080391 | 15.56° C | 87% | 1009.7 hPa | 0.51 mm | - | - | - |
| 1778079788 | 15° C | 87% | 1009.7 hPa | 0.51 mm | - | - | - |
| 1778078886 | 15° C | 87% | 1009.8 hPa | 0.51 mm | - | - | - |
| 1778077685 | 15° C | 87% | 1009.8 hPa | 0.51 mm | - | - | - |
| 1778076785 | 15° C | 87% | 1009.9 hPa | 0 mm | - | - | - |
| 1778076484 | 15.56° C | 87% | 1009.9 hPa | 0 mm | - | - | - |
| 1778075584 | 15.56° C | 86% | 1010 hPa | 0 mm | - | - | - |
| 1778074682 | 16.11° C | 86% | 1010.3 hPa | 0 mm | - | - | - |
| 1778073782 | 16.11° C | 87% | 1010.4 hPa | 0 mm | - | - | - |
| 1778073481 | 16.11° C | 87% | 1010.4 hPa | 0 mm | - | - | - |
| 1778071380 | 15.56° C | 87% | 1010.5 hPa | 0 mm | - | - | - |
| 1778070478 | 15.56° C | 87% | 1010.7 hPa | 0 mm | - | - | - |
| 1778069277 | 15.56° C | 87% | 1010.5 hPa | 0 mm | - | - | - |
| 1778068979 | 15° C | 87% | 1010.5 hPa | 0 mm | - | - | - |
| 1778068076 | 15° C | 87% | 1010.6 hPa | 0 mm | - | - | - |
| 1778067475 | 15° C | 87% | 1010.6 hPa | 0 mm | - | - | - |
| 1778066274 | 15° C | 87% | 1010.8 hPa | 0 mm | - | - | - |
| 1778065975 | 15.56° C | 87% | 1010.8 hPa | 0 mm | - | - | - |
* Rain latest hour (hover to see other rain measurements)
** Current wind speed in m/s (hover to see current wind gust speed)